GW2818 Weather Reports


Display with metric or nautical units.
time (UTC)temp
F
wind
direction
speed
MPH
gust
MPH
rain 1hr
in
rain 24hr
in
rain mn
in
humidity
%
barometer
mb
20260505230100 69 0 0.0 3.0 0.00 0.06 0.06 62 1007.9
20260505224542 69 150 1.0 7.0 0.00 0.06 0.06 61 1007.9
20260505223040 70 0 0.0 2.0 0.00 0.06 0.06 63 1008.0
20260505221539 70 0 0.0 6.0 0.00 0.06 0.06 63 1008.2
20260505220040 70 226 0.0 4.0 0.00 0.06 0.06 63 1008.3
20260505214543 71 260 0.0 4.0 0.00 0.06 0.06 62 1008.2
20260505213042 71 101 1.0 6.0 0.00 0.06 0.06 61 1008.0
20260505211542 71 264 1.0 9.0 0.00 0.06 0.06 62 1008.1
20260505210039 72 0 0.0 5.0 0.00 0.06 0.06 62 1008.0
20260505204604 72 0 1.0 4.0 0.00 0.06 0.06 61 1008.1
20260505203042 72 0 0.0 2.0 0.00 0.06 0.06 62 1008.0
20260505201543 71 0 0.0 2.0 0.00 0.06 0.06 62 1008.0
20260505200039 71 0 0.0 2.0 0.00 0.06 0.06 60 1008.3
20260505194551 71 91 0.0 2.0 0.00 0.06 0.06 62 1008.4
20260505193039 71 227 0.0 4.0 0.00 0.06 0.06 61 1008.7
20260505191551 71 0 0.0 5.0 0.00 0.06 0.06 62 1008.8
20260505190043 71 238 1.0 5.0 0.00 0.06 0.06 60 1008.8
20260505184541 72 124 1.0 6.0 0.00 0.06 0.06 59 1008.7
20260505183040 74 82 1.0 7.0 0.00 0.06 0.06 56 1008.7
20260505181539 75 63 0.0 7.0 0.00 0.06 0.06 56 1008.7
20260505180045 73 82 0.0 7.0 0.00 0.06 0.06 58 1008.9
20260505174536 70 81 1.0 4.0 0.00 0.06 0.06 59 1009.0
20260505173034 71 70 1.0 7.0 0.00 0.06 0.06 60 1008.7
20260505171540 73 96 1.0 9.0 0.00 0.06 0.06 58 1008.5
20260505170038 74 262 0.0 7.0 0.00 0.06 0.06 56 1008.2
20260505164537 74 0 0.0 5.0 0.00 0.06 0.06 59 1008.2
20260505163043 74 115 0.0 8.0 0.00 0.06 0.06 57 1008.4
20260505161541 72 76 1.0 8.0 0.00 0.06 0.06 59 1008.7
20260505153039 73 94 0.0 5.0 0.00 0.06 0.06 62 1008.7
20260505151538 70 192 0.0 8.0 0.00 0.06 0.06 68 1008.4
20260505150104 69 156 1.0 7.0 0.00 0.06 0.06 63 1008.3
20260505124550 65 119 1.0 6.0 0.00 0.06 0.06 70 1009.1
20260505123050 64 103 1.0 4.0 0.00 0.06 0.06 72 1009.1
20260505121613 63 148 1.0 5.0 0.00 0.06 0.06 73 1009.1
20260505120042 63 144 2.0 8.0 0.00 0.06 0.06 73 1009.1
20260505114538 62 0 0.0 5.0 0.00 0.06 0.06 75 1009.0
20260505113041 61 172 1.0 5.0 0.00 0.06 0.06 76 1009.0
20260505111540 60 214 1.0 6.0 0.00 0.06 0.06 78 1008.8
20260505101542 60 128 0.0 4.0 0.00 0.06 0.06 80 1008.2
20260505100043 59 0 0.0 6.0 0.00 0.06 0.06 83 1008.1
20260505094541 58 0 0.0 3.0 0.00 0.06 0.06 84 1007.9
20260505093043 58 0 1.0 3.0 0.00 0.06 0.06 84 1007.7
20260505091559 57 0 0.0 1.0 0.00 0.06 0.06 86 1007.6
20260505090055 57 0 0.0 2.0 0.00 0.06 0.06 87 1007.7
20260505084539 57 0 0.0 1.0 0.00 0.06 0.06 87 1007.6
20260505083046 56 0 0.0 2.0 0.00 0.06 0.06 88 1007.6
20260505081545 57 0 0.0 2.0 0.01 0.06 0.06 88 1007.5
20260505080048 57 0 0.0 3.0 0.01 0.06 0.06 89 1007.5
20260505074542 57 0 0.0 4.0 0.03 0.06 0.06 89 1007.4
20260505073047 57 0 0.0 4.0 0.06 0.06 0.06 91 1007.4
20260505071541 57 0 0.0 4.0 0.05 0.05 0.05 90 1007.4
20260505070038 57 0 0.0 4.0 0.05 0.05 0.05 90 1007.3
20260505064542 58 212 0.0 6.0 0.03 0.03 0.03 86 1007.6
20260505063048 59 0 0.0 1.0 0.00 0.00 0.00 77 1007.4
20260505061540 60 0 0.0 0.0 0.00 0.00 0.00 76 1007.2
20260505060039 60 0 0.0 2.0 0.00 0.00 0.00 74 1007.4
20260505054551 60 0 0.0 2.0 0.00 0.00 0.00 74 1007.6
20260505053047 60 0 0.0 1.0 0.00 0.00 0.00 73 1007.6
20260505051544 61 0 0.0 0.0 0.00 0.00 0.00 73 1007.7
20260505041550 60 0 0.0 2.0 0.00 0.00 0.00 73 1007.8
20260505040043 60 111 0.0 1.0 0.00 0.00 0.00 72 1007.7
20260505034539 61 0 0.0 1.0 0.00 0.00 0.00 71 1007.7
20260505033038 62 0 0.0 1.0 0.00 0.00 0.00 70 1007.8
20260505031540 62 217 0.0 3.0 0.00 0.00 0.00 69 1008.0
20260505030055 63 0 0.0 2.0 0.00 0.00 0.00 68 1008.1
20260505024539 63 0 0.0 3.0 0.00 0.00 0.00 69 1008.1
20260505023040 63 143 0.0 2.0 0.00 0.00 0.00 68 1008.1
20260505021549 63 0 0.0 3.0 0.00 0.00 0.00 68 1008.3
20260505020050 64 0 0.0 3.0 0.00 0.00 0.00 67 1008.3
20260505014543 64 0 0.0 2.0 0.00 0.00 0.00 66 1008.2
20260505013043 64 0 0.0 3.0 0.00 0.00 0.00 66 1008.0
20260505011540 65 136 0.0 6.0 0.00 0.00 0.00 65 1007.9
20260505010103 64 212 0.0 2.0 0.00 0.00 0.00 67 1007.7
20260505004540 65 98 0.0 3.0 0.00 0.00 0.00 64 1007.3
20260505003046 66 131 0.0 3.0 0.00 0.00 0.00 64 1007.3
20260505001539 66 136 0.0 3.0 0.00 0.00 0.00 63 1007.1
20260505000044 67 236 1.0 6.0 0.00 0.00 0.00 62 1007.0
20260504234542 67 217 1.0 8.0 0.00 0.00 0.00 63 1006.9
20260504233046 67 0 0.0 1.0 0.00 0.00 0.00 64 1007.4
20260504231538 67 0 0.0 3.0 0.00 0.00 0.00 64 1007.3